Wind_Speed
7 7 6 7 7 9 9 9 8 9 9 10 9 10 10 10 10 10 10 11 12 12 12 12 11 10 9 9 7 7 6 6 5 4 4 4 3 2 1 0 1 1 2 3 3 4 4 4 5
7 6 5 5 5 7 7 8 8 8 8 9 8 8 9 9 9 8 9 10 11 11 11 11 11 11 10 9 8 7 6 6 5 4 4 3 3 2 2 1 1 1 1 2 3 4 4 4 4
7 6 5 5 5 5 6 7 8 8 9 9 9 9 8 8 8 8 9 10 10 10 11 11 11 11 11 10 8 8 7 6 5 4 4 3 2 2 2 1 0 1 1 2 3 4 4 4 5
6 6 4 3 3 4 6 6 7 8 8 9 10 9 8 8 8 8 8 9 9 10 10 10 11 11 11 10 9 8 7 6 5 4 4 3 3 0 2 1 1 2 2 2 3 4 4 5 5
7 6 5 3 2 4 6 6 7 8 8 9 11 9 9 9 8 7 8 8 8 9 9 9 10 11 11 10 9 8 7 7 6 4 4 4 3 2 2 1 1 1 1 2 3 4 4 4 5
8 7 5 3 2 3 6 8 8 10 9 10 10 10 8 8 7 7 7 7 7 7 8 9 10 10 10 10 9 8 7 7 6 5 4 4 4 3 3 2 1 1 1 0 1 3 4 4 4
9 8 6 3 1 1 4 7 9 10 10 9 10 10 10 8 8 7 7 7 7 7 7 8 8 9 10 10 9 8 7 7 6 5 4 3 3 3 3 2 1 1 1 0 1 1 2 2 3
10 9 7 5 2 1 4 6 9 10 11 11 10 10 10 9 9 8 7 7 7 6 6 7 8 9 10 10 9 8 7 6 5 5 4 3 3 3 2 2 2 1 1 1 1 1 1 2 3
10 9 8 8 6 4 5 7 9 10 11 12 12 11 9 9 9 8 8 8 7 6 6 7 8 9 10 10 9 8 7 6 5 5 4 3 3 3 2 2 2 2 1 1 1 1 1 2 3
11 10 10 8 7 6 6 8 9 10 11 11 11 10 10 9 8 8 8 8 7 6 7 7 8 8 9 9 10 9 6 6 5 5 4 3 3 3 3 2 2 1 1 1 2 2 2 2 2
13 12 11 9 8 8 8 10 11 11 12 11 10 10 10 10 8 8 8 7 7 7 8 7 7 7 8 8 9 8 7 6 5 5 4 4 3 3 3 3 2 2 2 2 3 2 2 3 3
16 13 12 12 11 10 10 12 12 12 12 12 10 10 9 9 9 9 8 7 7 7 7 7 7 7 7 9 9 8 9 8 6 5 4 4 4 4 4 3 3 3 3 3 4 3 3 4 4
17 15 15 14 12 12 12 13 14 14 13 12 11 10 9 9 9 9 8 7 7 7 6 5 6 7 7 8 8 7 8 8 7 6 5 4 5 5 4 4 4 4 4 5 5 5 5 6 6
18 18 15 14 12 12 13 13 13 13 12 11 11 11 10 10 10 10 9 8 8 8 7 6 7 8 8 8 8 8 8 8 7 6 5 4 5 5 5 5 5 5 5 6 6 6 6 6 7
18 17 15 13 12 12 13 13 12 12 13 12 11 12 12 12 11 11 11 10 10 9 8 7 8 8 8 8 8 8 9 9 7 6 6 5 6 5 6 6 6 6 7 7 7 7 7 7 7
17 15 13 12 12 12 13 12 12 14 13 13 12 12 12 13 12 12 12 12 11 10 9 8 8 9 9 9 9 8 9 10 9 8 7 7 7 6 7 7 7 7 7 8 8 8 7 8 8
16 13 12 12 12 13 14 14 13 15 15 14 14 14 14 14 13 13 13 13 13 12 11 10 10 10 10 10 9 9 9 10 10 9 8 8 8 8 8 8 8 8 8 8 8 8 8 8 9
14 13 13 13 14 15 16 16 14 16 17 17 17 16 16 16 15 16 15 14 14 14 13 12 12 12 11 11 11 10 11 12 11 10 9 9 9 9 8 8 9 9 9 9 9 9 9 9 10
15 14 14 15 15 16 17 17 17 17 19 18 19 19 19 18 17 17 17 16 15 15 14 13 13 13 13 13 13 12 12 12 12 11 11 10 10 10 10 9 9 9 10 9 9 9 9 9 9
16 16 15 15 15 16 17 18 19 19 19 19 21 23 21 19 19 18 18 18 16 15 14 14 14 14 14 15 13 13 14 14 14 13 12 12 12 12 11 10 11 11 10 10 9 9 9 9 9
16 17 16 15 15 18 20 20 20 21 21 21 22 22 23 22 20 19 20 19 18 16 16 16 15 16 16 15 16 16 16 16 15 14 14 13 14 14 13 13 12 12 11 11 11 10 10 10 10
17 17 16 17 18 19 22 23 21 21 21 21 21 23 23 22 20 19 20 20 19 19 18 18 17 17 17 17 17 17 17 16 16 15 15 15 15 15 15 15 14 13 13 13 12 12 11 11 12
18 18 18 19 20 21 22 24 22 22 21 21 22 22 22 22 21 20 21 21 20 21 21 20 20 20 19 18 18 18 18 17 17 17 16 16 16 16 16 16 15 14 14 14 14 14 13 13 13
19 19 20 21 22 22 22 25 24 22 22 22 22 23 23 23 22 22 22 22 22 22 22 22 22 21 20 20 20 19 19 18 18 17 18 18 18 18 18 17 17 16 16 15 15 15 15 15 15
18 19 21 22 22 22 22 25 26 23 22 23 24 25 25 25 24 24 24 24 25 24 25 24 24 23 22 21 21 20 20 20 19 19 19 19 19 19 20 19 18 18 17 17 16 16 16 16 16
18 21 22 23 23 22 22 25 25 24 23 24 24 25 26 26 26 26 25 26 26 26 25 25 24 24 24 23 22 21 21 21 20 20 20 20 20 21 21 21 20 19 19 19 19 18 17 17 17
18 20 22 23 24 24 23 23 24 23 23 24 25 26 26 27 28 28 27 27 26 25 24 24 24 25 25 24 24 24 22 22 22 21 21 22 22 22 23 23 22 21 20 21 20 19 19 18 18
20 20 22 24 25 25 26 25 25 24 24 25 26 27 28 29 29 29 30 29 28 27 24 23 24 25 25 25 25 25 24 24 24 23 23 23 24 24 24 23 23 22 22 21 21 21 20 20 19
22 23 24 25 26 27 28 27 27 27 26 26 28 29 29 29 30 31 30 29 29 28 26 25 25 25 26 26 26 27 27 26 26 24 24 24 24 25 25 24 24 23 22 22 22 21 21 20 20
23 25 25 26 27 28 29 29 27 28 28 28 28 29 29 29 31 32 30 29 29 29 29 27 26 26 27 28 28 28 28 28 28 28 27 26 25 26 25 25 25 25 24 23 22 21 21 21 20
Wind_Direction
132 122 106 94 83 67 58 57 42 33 28 23 19 12 12 15 21 26 26 27 32 33 31 30 30 29 26 23 17 13 11 9 5 4 11 23 36 21 12 179 144 151 170 178 190 192 188 188 193
148 138 119 102 74 58 58 51 33 27 22 18 10 360 0 8 17 19 20 26 32 31 29 27 26 25 23 22 18 11 8 9 4 1 2 5 18 33 32 99 172 157 166 184 200 204 200 193 194
162 158 134 109 79 49 46 34 10 14 11 7 7 359 356 4 12 12 19 22 28 28 27 25 24 22 21 22 18 13 9 9 10 9 359 358 357 37 66 79 200 183 190 198 199 208 205 199 199
176 171 157 123 78 38 30 19 4 352 360 355 356 358 354 359 5 9 13 15 20 24 23 22 21 19 19 19 18 17 15 9 13 13 4 357 343 292 18 68 106 170 187 186 192 201 205 198 199
192 187 173 144 102 48 21 4 346 340 344 346 352 357 351 352 2 5 4 7 11 14 18 20 18 16 16 17 16 18 18 15 15 18 29 24 19 24 22 63 114 117 153 171 176 185 197 200 195
206 204 175 146 106 28 1 349 337 334 333 339 341 345 348 355 1 359 355 1 0 4 12 14 13 13 14 15 16 17 18 18 23 30 41 28 31 34 41 58 103 114 84 287 218 194 195 208 206
213 209 192 186 161 9 344 335 330 336 330 329 330 333 339 345 349 350 347 348 349 360 7 5 7 10 13 13 14 16 15 15 25 29 35 27 30 33 31 41 43 75 93 357 313 220 220 238 240
217 214 198 201 210 276 318 318 321 327 327 328 327 329 333 339 343 346 341 340 347 351 359 10 8 10 10 10 12 14 14 17 25 23 27 29 30 27 25 29 30 11 338 355 332 276 270 266 258
219 207 204 206 209 245 284 299 311 319 323 331 332 329 330 335 341 343 343 340 350 353 358 358 2 5 8 10 11 12 14 19 21 21 18 23 22 14 13 17 24 11 343 333 267 236 251 248 252
222 209 206 215 230 245 272 286 297 305 316 322 328 328 327 329 333 336 343 339 350 355 352 352 357 1 7 9 9 11 12 13 13 15 13 10 4 351 348 347 2 347 311 291 264 244 262 257 254
224 216 214 220 244 247 264 278 287 295 304 311 319 318 321 326 327 330 334 328 339 344 345 348 350 360 7 6 5 8 8 3 359 0 7 6 355 340 334 323 328 318 307 306 304 270 275 280 272
226 224 227 228 241 247 258 270 282 291 296 301 308 308 311 321 325 323 321 317 318 328 337 340 344 348 356 1 360 3 3 360 356 357 357 348 344 345 344 337 340 337 328 331 326 298 289 293 291
231 230 229 231 238 246 251 261 273 282 287 295 303 305 304 312 315 315 310 312 314 314 320 327 328 333 341 351 354 356 356 353 347 345 344 347 343 341 331 327 321 320 315 316 312 314 306 304 301
233 234 235 237 241 249 253 259 266 277 282 292 299 307 309 311 312 313 317 313 312 310 306 311 315 322 327 335 341 345 344 345 343 339 331 328 323 321 319 314 314 310 308 310 306 303 306 307 307
236 235 235 235 240 246 253 255 260 269 280 285 293 304 309 308 308 312 312 312 306 305 305 308 310 316 318 320 325 330 333 333 336 338 327 320 316 313 311 308 311 310 306 302 301 300 300 302 302
238 236 237 233 236 247 254 257 261 265 272 275 285 295 300 301 302 305 309 310 305 298 299 301 304 309 314 316 314 315 322 326 324 326 320 315 311 309 306 302 306 310 307 302 300 299 298 303 302
234 234 234 237 245 250 256 261 262 266 269 273 281 286 294 295 297 299 300 303 302 298 294 296 299 301 305 307 307 308 313 316 314 316 316 310 306 303 304 303 302 301 299 299 295 294 293 297 298
235 229 233 239 248 253 257 260 261 264 269 272 278 284 289 290 291 293 294 298 297 293 288 289 296 296 294 297 299 299 305 309 313 310 309 309 307 300 298 299 299 297 295 293 293 295 298 295 295
229 227 234 243 248 255 261 260 260 267 273 271 274 279 283 285 287 288 290 294 293 288 282 283 285 288 290 292 292 293 300 302 305 301 298 304 303 298 292 293 293 294 293 291 292 292 297 296 295
229 233 237 248 253 257 259 260 260 264 270 275 276 281 278 279 283 285 286 290 291 287 281 280 281 282 284 286 287 290 294 294 294 294 292 294 296 294 291 293 290 292 289 287 288 291 294 298 298
237 240 243 252 251 253 258 261 262 263 268 274 279 282 280 278 282 283 284 285 286 286 281 279 283 280 281 281 284 287 289 291 289 287 286 289 293 292 290 292 293 293 288 283 283 286 290 292 294
243 244 246 249 249 251 256 260 263 264 266 270 276 281 283 276 275 276 278 280 281 283 283 281 282 281 279 279 281 284 285 285 284 284 282 283 288 290 288 289 289 289 286 282 282 282 285 286 289
248 248 248 250 251 253 257 262 264 264 265 267 271 276 278 277 272 274 276 278 280 281 280 281 282 282 280 279 281 281 280 282 282 282 281 283 285 285 285 285 283 283 281 280 281 280 281 283 286
251 251 250 250 250 253 255 262 263 264 268 269 270 274 276 277 273 274 276 276 277 278 277 276 278 278 278 279 280 279 279 280 280 281 281 282 282 280 279 279 280 280 278 279 278 276 277 279 284
250 251 252 251 253 255 256 260 264 266 269 269 268 269 271 271 272 272 272 274 274 274 274 272 275 275 275 276 277 277 277 278 278 279 279 279 279 279 276 276 276 278 279 278 275 273 274 277 280
250 255 256 257 259 259 258 260 264 265 268 271 271 269 269 269 269 270 271 272 273 274 273 271 275 276 277 277 275 275 276 274 275 277 276 274 275 276 276 274 275 276 276 277 276 275 275 276 278
254 256 260 262 263 264 264 264 264 266 267 270 271 271 271 270 271 271 270 272 275 278 275 271 272 273 274 275 276 274 273 272 272 273 274 273 273 273 274 276 273 274 275 274 275 275 275 276 276
255 258 260 261 262 264 266 266 267 266 268 269 267 270 272 273 273 272 271 273 276 277 276 271 271 271 273 276 276 275 274 273 272 273 273 273 272 273 274 274 271 272 274 274 273 273 273 275 274
252 255 258 261 264 267 269 268 269 268 268 270 270 272 274 274 275 274 272 272 275 277 277 271 270 272 273 273 274 275 273 272 271 271 272 271 272 272 272 271 269 268 270 273 272 272 272 271 270
253 255 258 260 262 264 268 271 270 271 270 271 272 272 274 274 276 275 271 272 275 275 276 273 271 273 272 272 274 274 272 270 271 271 272 271 270 270 269 268 267 268 267 269 269 269 267 267 267
Height
5919 5918 5918 5919 5919 5918 5916 5916 5916 5916 5916 5915 5914 5913 5912 5911 5910 5911 5907 5904 5901 5900 5899 5898 5896 5895 5894 5893 5891 5890 5889 5888 5887 5886 5885 5884 5884 5883 5883 5882 5882 5882 5882 5882 5882 5882 5882 5882 5883
5919 5919 5919 5919 5919 5917 5917 5917 5916 5916 5916 5915 5915 5914 5912 5911 5910 5908 5906 5904 5902 5901 5900 5899 5898 5896 5895 5893 5892 5890 5889 5888 5887 5886 5886 5885 5884 5883 5883 5882 5882 5882 5882 5882 5882 5882 5882 5882 5883
5919 5919 5920 5919 5918 5918 5918 5917 5917 5915 5915 5916 5915 5914 5912 5911 5910 5908 5907 5905 5903 5902 5901 5900 5898 5897 5895 5894 5892 5891 5890 5888 5887 5887 5886 5884 5883 5883 5883 5882 5882 5882 5882 5882 5882 5881 5881 5882 5882
5920 5920 5920 5919 5918 5918 5917 5917 5917 5916 5916 5916 5915 5914 5912 5911 5910 5908 5907 5906 5904 5903 5902 5901 5899 5898 5896 5894 5893 5891 5890 5889 5888 5887 5886 5884 5882 5882 5882 5882 5882 5882 5882 5881 5881 5881 5881 5882 5881
5920 5920 5919 5918 5917 5917 5917 5917 5917 5917 5916 5915 5915 5914 5912 5911 5910 5908 5907 5906 5905 5904 5903 5901 5900 5898 5896 5895 5893 5891 5890 5889 5888 5887 5885 5883 5881 5881 5882 5882 5882 5882 5882 5881 5881 5881 5881 5881 5881
5920 5920 5919 5918 5917 5916 5916 5917 5917 5917 5916 5915 5915 5914 5912 5911 5910 5909 5907 5906 5905 5904 5903 5902 5900 5899 5897 5895 5893 5892 5890 5889 5888 5887 5885 5884 5883 5882 5882 5882 5882 5882 5881 5881 5881 5881 5881 5881 5881
5919 5919 5918 5918 5917 5917 5917 5916 5916 5916 5916 5915 5915 5913 5912 5911 5910 5909 5907 5906 5905 5904 5903 5902 5901 5899 5897 5896 5894 5892 5891 5889 5888 5887 5885 5885 5884 5883 5883 5882 5882 5881 5881 5881 5881 5881 5881 5881 5881
5917 5918 5917 5917 5916 5916 5916 5915 5915 5916 5915 5915 5914 5913 5912 5910 5909 5908 5907 5905 5904 5903 5903 5901 5901 5900 5898 5896 5894 5893 5891 5890 5889 5888 5886 5885 5884 5884 5883 5882 5882 5882 5881 5881 5880 5881 5881 5881 5881
5915 5917 5916 5916 5916 5915 5915 5914 5914 5914 5915 5914 5913 5912 5911 5910 5909 5908 5906 5905 5904 5903 5902 5901 5901 5900 5898 5897 5895 5893 5892 5890 5889 5888 5887 5886 5885 5884 5883 5883 5882 5882 5881 5880 5880 5880 5880 5880 5880
5913 5915 5915 5915 5914 5914 5914 5914 5914 5913 5914 5913 5913 5912 5911 5909 5908 5907 5906 5905 5904 5903 5903 5902 5901 5900 5898 5897 5895 5893 5892 5891 5890 5889 5887 5886 5885 5884 5884 5883 5883 5882 5881 5880 5880 5880 5880 5880 5879
5911 5912 5912 5912 5913 5913 5913 5912 5912 5912 5913 5913 5912 5911 5910 5909 5908 5907 5906 5904 5904 5903 5902 5901 5901 5899 5898 5897 5895 5894 5892 5891 5890 5889 5888 5887 5886 5885 5884 5883 5883 5882 5881 5881 5880 5880 5879 5879 5879
5908 5909 5909 5910 5911 5911 5911 5911 5910 5911 5912 5911 5911 5910 5909 5908 5907 5906 5905 5904 5903 5903 5902 5901 5900 5899 5898 5897 5895 5894 5892 5891 5890 5888 5887 5886 5885 5884 5883 5883 5882 5882 5881 5880 5880 5879 5879 5878 5877
5906 5906 5906 5907 5909 5909 5909 5909 5909 5909 5909 5909 5909 5908 5907 5907 5906 5905 5905 5904 5903 5902 5901 5900 5899 5898 5897 5896 5895 5894 5892 5891 5889 5888 5887 5886 5885 5884 5883 5883 5882 5881 5880 5880 5879 5878 5878 5877 5876
5902 5903 5904 5905 5906 5907 5907 5907 5907 5907 5907 5907 5907 5906 5905 5905 5904 5904 5904 5903 5902 5901 5900 5898 5898 5897 5896 5895 5894 5893 5891 5890 5889 5887 5886 5885 5885 5884 5883 5882 5881 5880 5880 5879 5878 5877 5876 5876 5875
5899 5901 5902 5903 5903 5904 5905 5905 5905 5905 5905 5905 5904 5905 5904 5903 5903 5902 5901 5900 5900 5899 5898 5897 5896 5895 5894 5894 5892 5891 5890 5889 5888 5887 5885 5884 5883 5882 5882 5881 5880 5879 5878 5877 5877 5876 5875 5874 5873
5897 5898 5900 5901 5901 5901 5902 5902 5903 5902 5902 5902 5902 5903 5902 5901 5900 5900 5899 5898 5897 5896 5895 5895 5894 5893 5892 5892 5891 5889 5888 5887 5886 5885 5884 5883 5882 5881 5880 5879 5878 5877 5876 5875 5875 5874 5873 5872 5871
5894 5895 5896 5898 5898 5898 5898 5898 5899 5899 5899 5899 5899 5900 5900 5899 5898 5897 5897 5896 5895 5894 5893 5893 5892 5891 5890 5889 5888 5887 5886 5885 5884 5883 5882 5881 5880 5879 5878 5877 5876 5875 5875 5874 5873 5872 5872 5871 5870
5891 5892 5892 5893 5894 5893 5893 5895 5896 5895 5896 5896 5896 5897 5896 5896 5896 5895 5894 5893 5893 5892 5891 5890 5889 5888 5888 5886 5886 5885 5884 5883 5881 5881 5880 5879 5878 5877 5876 5875 5874 5874 5873 5872 5871 5871 5870 5869 5868
5887 5888 5888 5889 5889 5889 5889 5890 5891 5891 5892 5892 5893 5893 5893 5893 5892 5892 5890 5890 5889 5888 5887 5887 5886 5885 5884 5883 5882 5881 5881 5880 5879 5878 5878 5877 5876 5875 5874 5873 5872 5871 5871 5870 5869 5869 5868 5867 5866
5882 5884 5884 5885 5885 5885 5885 5886 5887 5887 5888 5888 5889 5889 5889 5888 5888 5887 5886 5885 5885 5884 5884 5883 5882 5881 5881 5879 5878 5878 5878 5877 5876 5876 5875 5874 5873 5872 5870 5870 5869 5869 5868 5867 5867 5866 5865 5864 5863
5879 5880 5880 5881 5881 5881 5881 5881 5881 5882 5883 5884 5884 5884 5884 5884 5883 5882 5881 5881 5881 5880 5880 5879 5878 5877 5876 5875 5874 5874 5874 5873 5872 5872 5871 5871 5870 5867 5867 5867 5866 5866 5865 5865 5864 5863 5863 5862 5861
5874 5876 5876 5876 5876 5876 5877 5876 5876 5877 5878 5879 5879 5879 5879 5878 5878 5877 5876 5876 5876 5875 5875 5875 5874 5873 5872 5872 5871 5870 5869 5869 5868 5868 5867 5867 5866 5865 5864 5864 5863 5863 5862 5862 5861 5860 5860 5859 5858
5870 5871 5871 5871 5871 5871 5871 5871 5872 5872 5873 5874 5873 5873 5873 5872 5872 5872 5871 5870 5870 5870 5870 5869 5868 5868 5867 5866 5866 5865 5865 5864 5864 5863 5863 5862 5862 5861 5860 5860 5859 5859 5859 5858 5857 5857 5856 5856 5855
5864 5865 5866 5866 5866 5866 5867 5866 5866 5867 5867 5868 5867 5867 5867 5867 5866 5866 5865 5865 5864 5864 5863 5863 5863 5862 5862 5861 5861 5860 5860 5859 5859 5859 5858 5858 5857 5856 5856 5855 5855 5855 5854 5854 5853 5853 5852 5852 5851
5859 5860 5861 5860 5861 5861 5862 5860 5861 5862 5861 5861 5861 5860 5860 5860 5860 5860 5859 5859 5858 5857 5857 5856 5856 5855 5855 5855 5855 5855 5854 5854 5854 5853 5853 5853 5852 5851 5851 5850 5850 5849 5849 5849 5849 5849 5848 5847 5847
5855 5855 5856 5855 5855 5856 5856 5854 5856 5856 5855 5854 5854 5853 5853 5853 5853 5853 5853 5853 5852 5850 5850 5850 5850 5849 5849 5849 5848 5848 5848 5848 5848 5847 5847 5847 5846 5846 5845 5845 5844 5844 5844 5843 5843 5843 5843 5843 5842
5849 5849 5850 5850 5849 5849 5849 5849 5849 5849 5849 5848 5848 5847 5847 5846 5846 5846 5845 5845 5845 5844 5843 5843 5843 5843 5843 5842 5842 5842 5842 5842 5841 5841 5841 5841 5840 5840 5839 5839 5839 5838 5838 5838 5838 5837 5837 5837 5837
5844 5844 5844 5843 5843 5842 5843 5843 5843 5843 5843 5843 5841 5840 5840 5839 5838 5838 5837 5836 5837 5836 5836 5836 5836 5836 5836 5835 5835 5835 5835 5835 5834 5834 5834 5834 5834 5833 5833 5832 5832 5832 5832 5832 5832 5832 5831 5831 5831
5838 5838 5837 5837 5837 5837 5836 5838 5837 5836 5836 5835 5834 5833 5833 5832 5831 5830 5829 5829 5829 5829 5829 5829 5829 5829 5829 5828 5828 5827 5827 5827 5827 5827 5827 5827 5827 5826 5826 5826 5826 5825 5825 5825 5825 5825 5825 5825 5825
5832 5831 5831 5832 5831 5830 5829 5832 5829 5829 5828 5827 5826 5826 5825 5824 5822 5821 5821 5822 5821 5821 5821 5821 5821 5822 5822 5821 5820 5820 5819 5819 5819 5819 5819 5819 5819 5819 5819 5818 5819 5819 5818 5818 5818 5818 5818 5818 5818